Location: Hains Lake
(37.8540°N, 99.8578°W)
Time: 08:21:33
(UTC+00:00)

Vanguard 3 - Pass Details

Date: 24 April 2021
Orbit: 508 x 3262 km, 33.3° (Epoch: 09 May)

Event Time Altitude Azimuth Distance (km) Brightness Sun altitude
Exits shadow 09:38:54 22° 131° (SE) 1,168 8.0 -23.8°
Drops below altitude 10° 09:40:22 10° 118° (ESE) 1,711 9.1 -23.5°
Sets 09:42:32 0° 110° (ESE) 2,610 10.2 -23.2°
